Time,TemperatureF,DewpointF,PressureIn,WindDirection,WindDirectionDegrees,WindSpeedMPH,WindSpeedGustMPH,Humidity,HourlyPrecipIn,Conditions,Clouds,dailyrainin,SolarRadiationWatts/m^2,SoftwareType,DateUTC
2013-10-28 00:04:00,30.2,27.0,30.04,NNE,15,3.0,9.0,89,0.00,,,0.00,0,weatherlink.com 1.10,2013-10-28 06:04:00,
2013-10-28 00:19:00,29.0,26.0,30.05,East,96,2.0,7.0,90,0.00,,,0.00,0,weatherlink.com 1.10,2013-10-28 06:19:00,
2013-10-28 00:34:00,27.5,25.0,30.04,East,92,6.0,10.0,91,0.00,,,0.00,0,weatherlink.com 1.10,2013-10-28 06:34:00,
2013-10-28 00:49:00,26.9,25.0,30.05,SSE,157,3.0,8.0,92,0.00,,,0.00,0,weatherlink.com 1.10,2013-10-28 06:49:00,
2013-10-28 01:04:00,26.7,25.0,30.05,SW,218,2.0,6.0,93,0.00,,,0.00,0,weatherlink.com 1.10,2013-10-28 07:04:00,
2013-10-28 01:19:00,26.4,25.0,30.06,ESE,103,1.0,9.0,93,0.00,,,0.00,0,weatherlink.com 1.10,2013-10-28 07:19:00,
2013-10-28 01:34:00,26.4,24.0,30.07,NNE,21,7.0,9.0,92,0.00,,,0.00,0,weatherlink.com 1.10,2013-10-28 07:34:00,
2013-10-28 01:48:00,26.3,24.0,30.07,South,191,3.0,9.0,92,0.00,,,0.00,0,weatherlink.com 1.10,2013-10-28 07:48:00,
2013-10-28 02:03:00,26.2,24.0,30.08,ENE,67,3.0,9.0,91,0.00,,,0.00,0,weatherlink.com 1.10,2013-10-28 08:03:00,
2013-10-28 02:18:00,26.2,24.0,30.09,SSE,168,2.0,9.0,91,0.00,,,0.00,0,weatherlink.com 1.10,2013-10-28 08:18:00,
2013-10-28 02:33:00,26.0,24.0,30.09,East,96,3.0,6.0,92,0.00,,,0.00,0,weatherlink.com 1.10,2013-10-28 08:33:00,
2013-10-28 02:48:00,25.9,24.0,30.10,SE,125,1.0,6.0,92,0.00,,,0.00,0,weatherlink.com 1.10,2013-10-28 08:48:00,
2013-10-28 03:02:00,25.6,24.0,30.09,NNE,28,3.0,4.0,92,0.00,,,0.00,0,weatherlink.com 1.10,2013-10-28 09:02:00,
2013-10-28 03:17:00,25.5,24.0,30.09,SE,144,2.0,8.0,92,0.00,,,0.00,0,weatherlink.com 1.10,2013-10-28 09:17:00,
2013-10-28 03:32:00,25.2,23.0,30.10,North,360,3.0,4.0,92,0.00,,,0.00,0,weatherlink.com 1.10,2013-10-28 09:32:00,
2013-10-28 03:47:00,25.1,23.0,30.10,East,98,1.0,5.0,92,0.00,,,0.00,0,weatherlink.com 1.10,2013-10-28 09:47:00,
2013-10-28 04:01:00,25.0,23.0,30.10,ENE,75,0.0,5.0,92,0.00,,,0.00,0,weatherlink.com 1.10,2013-10-28 10:01:00,
2013-10-28 04:16:00,24.9,23.0,30.09,SSE,159,1.0,7.0,92,0.00,,,0.00,0,weatherlink.com 1.10,2013-10-28 10:16:00,
2013-10-28 04:31:00,24.7,23.0,30.10,SSE,164,2.0,6.0,92,0.00,,,0.00,0,weatherlink.com 1.10,2013-10-28 10:31:00,
2013-10-28 04:46:00,24.4,22.0,30.10,East,90,1.0,9.0,92,0.00,,,0.00,0,weatherlink.com 1.10,2013-10-28 10:46:00,
2013-10-28 05:00:00,24.0,22.0,30.11,SE,144,3.0,7.0,92,0.00,,,0.00,0,weatherlink.com 1.10,2013-10-28 11:00:00,
2013-10-28 05:15:00,23.8,22.0,30.11,WSW,247,4.0,10.0,93,0.00,,,0.00,0,weatherlink.com 1.10,2013-10-28 11:15:00,
2013-10-28 05:30:00,23.6,22.0,30.11,WSW,257,2.0,9.0,92,0.00,,,0.00,0,weatherlink.com 1.10,2013-10-28 11:30:00,
2013-10-28 05:45:00,23.5,22.0,30.11,SE,137,2.0,7.0,92,0.00,,,0.00,0,weatherlink.com 1.10,2013-10-28 11:45:00,
2013-10-28 05:59:00,23.5,22.0,30.12,West,262,3.0,6.0,92,0.00,,,0.00,0,weatherlink.com 1.10,2013-10-28 11:59:00,
2013-10-28 06:14:00,23.5,22.0,30.13,SW,230,0.0,11.0,92,0.00,,,0.00,0,weatherlink.com 1.10,2013-10-28 12:14:00,
2013-10-28 06:29:00,23.6,21.0,30.12,West,273,2.0,11.0,91,0.00,,,0.00,0,weatherlink.com 1.10,2013-10-28 12:29:00,
2013-10-28 06:44:00,23.5,21.0,30.12,WSW,250,9.0,11.0,91,0.00,,,0.00,0,weatherlink.com 1.10,2013-10-28 12:44:00,
2013-10-28 06:58:00,23.4,21.0,30.12,WSW,240,3.0,8.0,92,0.00,,,0.00,0,weatherlink.com 1.10,2013-10-28 12:58:00,
2013-10-28 07:13:00,23.4,21.0,30.12,SSW,203,1.0,9.0,92,0.00,,,0.00,0,weatherlink.com 1.10,2013-10-28 13:13:00,
2013-10-28 07:28:00,23.3,21.0,30.13,WSW,252,3.0,8.0,91,0.00,,,0.00,0,weatherlink.com 1.10,2013-10-28 13:28:00,
2013-10-28 07:43:00,23.1,21.0,30.13,NNW,327,3.0,9.0,91,0.00,,,0.00,0,weatherlink.com 1.10,2013-10-28 13:43:00,
2013-10-28 07:58:00,23.1,21.0,30.13,WSW,249,1.0,10.0,92,0.00,,,0.00,0,weatherlink.com 1.10,2013-10-28 13:58:00,
2013-10-28 08:13:00,23.0,21.0,30.14,SE,126,1.0,5.0,92,0.00,,,0.00,7,weatherlink.com 1.10,2013-10-28 14:13:00,
2013-10-28 08:28:00,22.9,21.0,30.15,WNW,292,0.0,4.0,92,0.00,,,0.00,11,weatherlink.com 1.10,2013-10-28 14:28:00,
2013-10-28 08:43:00,22.7,21.0,30.14,SSE,166,1.0,9.0,92,0.00,,,0.00,18,weatherlink.com 1.10,2013-10-28 14:43:00,
2013-10-28 08:58:00,22.6,20.0,30.14,WSW,239,1.0,8.0,91,0.00,,,0.00,23,weatherlink.com 1.10,2013-10-28 14:58:00,
2013-10-28 09:13:00,22.6,20.0,30.15,ESE,117,2.0,6.0,91,0.00,,,0.00,37,weatherlink.com 1.10,2013-10-28 15:13:00,
2013-10-28 09:27:00,22.6,21.0,30.15,NE,51,2.0,9.0,92,0.00,,,0.00,49,weatherlink.com 1.10,2013-10-28 15:27:00,
2013-10-28 09:42:00,22.5,21.0,30.15,ESE,111,0.0,10.0,92,0.00,,,0.00,86,weatherlink.com 1.10,2013-10-28 15:42:00,
2013-10-28 09:57:00,22.5,20.0,30.16,ENE,67,2.0,8.0,91,0.00,,,0.00,86,weatherlink.com 1.10,2013-10-28 15:57:00,
2013-10-28 10:12:00,22.4,20.0,30.16,ENE,69,2.0,6.0,91,0.00,,,0.00,104,weatherlink.com 1.10,2013-10-28 16:12:00,
2013-10-28 10:27:00,22.2,20.0,30.16,SE,141,3.0,8.0,91,0.00,,,0.00,90,weatherlink.com 1.10,2013-10-28 16:27:00,
2013-10-28 10:42:00,22.0,20.0,30.16,South,180,2.0,8.0,91,0.00,,,0.00,91,weatherlink.com 1.10,2013-10-28 16:42:00,
2013-10-28 10:56:00,22.2,20.0,30.16,WSW,257,3.0,7.0,91,0.00,,,0.00,93,weatherlink.com 1.10,2013-10-28 16:56:00,
2013-10-28 11:11:00,22.1,20.0,30.16,East,85,1.0,6.0,91,0.00,,,0.00,88,weatherlink.com 1.10,2013-10-28 17:11:00,
2013-10-28 11:26:00,22.1,20.0,30.17,ESE,121,0.0,6.0,91,0.00,,,0.00,151,weatherlink.com 1.10,2013-10-28 17:26:00,
2013-10-28 11:41:00,22.4,20.0,30.17,SSW,213,2.0,7.0,91,0.00,,,0.00,185,weatherlink.com 1.10,2013-10-28 17:41:00,
2013-10-28 11:56:00,22.7,20.0,30.18,SE,134,1.0,5.0,90,0.00,,,0.00,193,weatherlink.com 1.10,2013-10-28 17:56:00,
2013-10-28 12:11:00,23.0,21.0,30.17,SE,136,3.0,6.0,90,0.00,,,0.00,258,weatherlink.com 1.10,2013-10-28 18:11:00,
2013-10-28 12:25:00,23.1,21.0,30.16,ESE,118,2.0,9.0,90,0.00,,,0.00,278,weatherlink.com 1.10,2013-10-28 18:25:00,
2013-10-28 12:40:00,23.2,21.0,30.17,East,88,4.0,8.0,90,0.00,,,0.00,232,weatherlink.com 1.10,2013-10-28 18:40:00,
2013-10-28 12:55:00,22.8,20.0,30.16,ESE,121,2.0,8.0,90,0.00,,,0.00,237,weatherlink.com 1.10,2013-10-28 18:55:00,
2013-10-28 13:10:00,22.4,20.0,30.17,East,94,4.0,5.0,90,0.00,,,0.00,214,weatherlink.com 1.10,2013-10-28 19:10:00,
2013-10-28 13:25:00,22.2,20.0,30.17,SSW,198,2.0,8.0,90,0.00,,,0.00,165,weatherlink.com 1.10,2013-10-28 19:25:00,
2013-10-28 13:40:00,21.7,19.0,30.18,SE,132,2.0,5.0,90,0.00,,,0.00,167,weatherlink.com 1.10,2013-10-28 19:40:00,
2013-10-28 13:54:00,21.5,19.0,30.18,SE,143,3.0,7.0,90,0.00,,,0.00,149,weatherlink.com 1.10,2013-10-28 19:54:00,
2013-10-28 14:09:00,21.3,19.0,30.18,North,355,0.0,10.0,90,0.00,,,0.00,128,weatherlink.com 1.10,2013-10-28 20:09:00,
2013-10-28 14:24:00,21.0,19.0,30.18,SE,142,2.0,6.0,90,0.00,,,0.00,118,weatherlink.com 1.10,2013-10-28 20:24:00,
2013-10-28 14:39:00,20.9,19.0,30.18,SE,138,3.0,5.0,91,0.00,,,0.00,149,weatherlink.com 1.10,2013-10-28 20:39:00,
2013-10-28 14:53:00,20.6,18.0,30.18,NE,45,1.0,7.0,91,0.00,,,0.00,74,weatherlink.com 1.10,2013-10-28 20:53:00,
2013-10-28 15:08:00,20.3,18.0,30.19,SE,144,0.0,6.0,91,0.00,,,0.00,88,weatherlink.com 1.10,2013-10-28 21:08:00,
2013-10-28 15:23:00,20.2,18.0,30.19,ESE,118,2.0,6.0,92,0.00,,,0.00,84,weatherlink.com 1.10,2013-10-28 21:23:00,
2013-10-28 15:38:00,20.0,18.0,30.19,South,180,1.0,9.0,92,0.00,,,0.00,53,weatherlink.com 1.10,2013-10-28 21:38:00,
2013-10-28 15:53:00,19.7,18.0,30.20,NE,44,0.0,8.0,92,0.00,,,0.00,35,weatherlink.com 1.10,2013-10-28 21:53:00,
2013-10-28 16:08:00,19.4,17.0,30.21,ESE,115,3.0,6.0,92,0.00,,,0.00,58,weatherlink.com 1.10,2013-10-28 22:08:00,
2013-10-28 16:22:00,19.3,17.0,30.21,SSE,163,0.0,6.0,92,0.00,,,0.00,47,weatherlink.com 1.10,2013-10-28 22:22:00,
2013-10-28 16:37:00,19.1,17.0,30.22,SE,129,5.0,6.0,92,0.00,,,0.00,28,weatherlink.com 1.10,2013-10-28 22:37:00,
2013-10-28 16:52:00,19.0,17.0,30.22,NNE,18,1.0,6.0,92,0.00,,,0.00,25,weatherlink.com 1.10,2013-10-28 22:52:00,
2013-10-28 17:07:00,18.9,17.0,30.21,WSW,238,0.0,5.0,92,0.00,,,0.00,63,weatherlink.com 1.10,2013-10-28 23:07:00,
2013-10-28 17:21:00,18.6,17.0,30.21,SE,128,2.0,6.0,92,0.00,,,0.00,26,weatherlink.com 1.10,2013-10-28 23:21:00,
2013-10-28 17:36:00,18.1,16.0,30.22,ESE,107,1.0,5.0,92,0.00,,,0.00,7,weatherlink.com 1.10,2013-10-28 23:36:00,
2013-10-28 17:51:00,17.8,16.0,30.22,SSE,148,1.0,5.0,92,0.00,,,0.00,0,weatherlink.com 1.10,2013-10-28 23:51:00,
2013-10-28 18:06:00,17.6,16.0,30.22,ENE,71,0.0,4.0,92,0.00,,,0.00,0,weatherlink.com 1.10,2013-10-29 00:06:00,
2013-10-28 18:21:00,17.5,16.0,30.23,SSE,154,0.0,5.0,92,0.00,,,0.00,0,weatherlink.com 1.10,2013-10-29 00:21:00,
2013-10-28 18:35:00,17.3,15.0,30.23,ESE,123,1.0,5.0,92,0.00,,,0.00,0,weatherlink.com 1.10,2013-10-29 00:35:00,
2013-10-28 18:50:00,17.1,15.0,30.25,SSW,193,0.0,3.0,92,0.00,,,0.00,0,weatherlink.com 1.10,2013-10-29 00:50:00,
2013-10-28 19:05:00,17.0,15.0,30.26,East,93,0.0,3.0,92,0.00,,,0.00,0,weatherlink.com 1.10,2013-10-29 01:05:00,
2013-10-28 19:20:00,17.0,15.0,30.27,SSW,197,0.0,4.0,92,0.00,,,0.00,0,weatherlink.com 1.10,2013-10-29 01:20:00,
2013-10-28 19:35:00,17.0,15.0,30.27,ENE,71,5.0,5.0,92,0.00,,,0.00,0,weatherlink.com 1.10,2013-10-29 01:35:00,
2013-10-28 19:49:00,17.0,15.0,30.27,SE,138,2.0,4.0,92,0.00,,,0.00,0,weatherlink.com 1.10,2013-10-29 01:49:00,
2013-10-28 20:04:00,16.9,15.0,30.27,ESE,121,2.0,5.0,92,0.00,,,0.00,0,weatherlink.com 1.10,2013-10-29 02:04:00,
2013-10-28 20:19:00,16.8,15.0,30.27,SE,141,1.0,3.0,92,0.00,,,0.00,0,weatherlink.com 1.10,2013-10-29 02:19:00,
2013-10-28 20:34:00,16.8,15.0,30.27,ENE,58,1.0,4.0,92,0.00,,,0.00,0,weatherlink.com 1.10,2013-10-29 02:34:00,
2013-10-28 20:49:00,16.8,15.0,30.27,SE,136,1.0,4.0,92,0.00,,,0.00,0,weatherlink.com 1.10,2013-10-29 02:49:00,
2013-10-28 21:03:00,16.7,15.0,30.27,East,94,1.0,3.0,92,0.00,,,0.00,0,weatherlink.com 1.10,2013-10-29 03:03:00,
2013-10-28 21:18:00,16.7,15.0,30.28,SSE,148,0.0,2.0,92,0.00,,,0.00,0,weatherlink.com 1.10,2013-10-29 03:18:00,
2013-10-28 21:33:00,16.7,15.0,30.28,East,101,0.0,3.0,92,0.00,,,0.00,0,weatherlink.com 1.10,2013-10-29 03:33:00,
2013-10-28 21:48:00,16.6,15.0,30.28,East,81,0.0,3.0,92,0.00,,,0.00,0,weatherlink.com 1.10,2013-10-29 03:48:00,
2013-10-28 22:02:00,16.6,15.0,30.28,East,82,0.0,3.0,92,0.00,,,0.00,0,weatherlink.com 1.10,2013-10-29 04:02:00,
2013-10-28 22:17:00,16.6,15.0,30.29,East,82,0.0,2.0,92,0.00,,,0.00,0,weatherlink.com 1.10,2013-10-29 04:17:00,
2013-10-28 22:32:00,16.6,15.0,30.29,East,79,0.0,1.0,92,0.00,,,0.00,0,weatherlink.com 1.10,2013-10-29 04:32:00,
2013-10-28 22:46:00,16.6,15.0,30.29,East,79,0.0,2.0,92,0.00,,,0.00,0,weatherlink.com 1.10,2013-10-29 04:46:00,
2013-10-28 23:01:00,16.6,15.0,30.29,ENE,65,1.0,3.0,92,0.00,,,0.00,0,weatherlink.com 1.10,2013-10-29 05:01:00,
2013-10-28 23:16:00,16.6,15.0,30.30,ENE,66,0.0,1.0,92,0.00,,,0.00,0,weatherlink.com 1.10,2013-10-29 05:16:00,
2013-10-28 23:31:00,16.6,15.0,30.29,ENE,66,0.0,1.0,92,0.00,,,0.00,0,weatherlink.com 1.10,2013-10-29 05:31:00,
2013-10-28 23:45:00,16.6,15.0,30.28,ENE,58,0.0,2.0,92,0.00,,,0.00,0,weatherlink.com 1.10,2013-10-29 05:45:00,